Theta_e
316 318 321 323 324 325 325 326 326 327 328 328 329 328 328 327 326 323 322 321 321 320 317 315 312 307 303 302 299 297 295 294 293 292 292 292 292 292 291 291 291 291 290 289 289 288 288 288 288 288 287 287 287 286 286 286 286 285 285 284 284 284 284 285 286 286 286 285 285 285 284 284 284 284 284 284 284 284 283 283 283 283 283 283 283
311 314 317 320 322 323 325 325 325 325 326 326 327 327 326 326 324 322 321 321 321 319 317 313 308 304 301 299 296 295 294 293 292 292 291 292 291 291 291 290 290 290 289 289 289 288 288 288 288 287 287 287 286 286 286 286 285 285 284 284 284 284 284 284 284 285 285 285 284 284 284 284 284 284 283 283 284 283 283 283 283 283 283 283 283
311 313 316 319 321 323 323 324 324 324 325 325 326 326 325 324 323 321 321 321 320 318 315 310 304 301 299 297 295 294 293 292 291 291 291 292 291 291 290 290 290 290 289 289 288 288 288 288 288 287 287 287 286 286 286 285 285 285 284 284 283 283 283 283 284 284 284 284 284 284 284 283 283 284 283 283 283 283 283 283 283 283 283 283 283
314 315 317 319 320 321 322 323 323 323 324 323 323 324 323 321 321 321 321 320 319 316 311 305 301 300 297 295 294 293 292 292 291 291 291 291 291 290 290 290 289 289 289 289 288 288 288 288 288 287 287 286 286 286 285 285 285 285 284 283 283 283 283 283 283 283 283 284 284 284 283 283 283 283 283 283 283 282 282 282 282 283 283 283 283
315 316 318 319 320 320 321 321 321 321 322 321 321 322 321 320 321 321 321 319 316 311 306 302 300 298 295 294 293 292 291 291 291 291 290 290 290 290 290 289 289 289 288 288 288 288 288 287 287 287 286 286 286 286 285 285 285 284 284 283 283 282 282 282 283 283 283 283 283 283 283 283 283 283 283 283 282 282 282 282 283 283 283 283 283
315 316 317 319 319 319 320 320 319 320 320 320 320 321 319 319 320 319 319 317 312 306 302 300 298 296 294 293 292 292 291 291 291 291 290 290 290 290 289 289 288 288 288 288 287 287 287 287 287 287 286 286 286 286 285 285 285 284 283 282 282 282 282 282 283 283 283 283 283 283 283 283 283 283 283 282 282 282 282 282 283 283 283 283 283
315 315 317 319 319 318 317 318 318 319 319 319 319 319 318 319 318 317 315 312 307 303 300 298 296 294 293 292 291 291 291 290 290 290 290 290 290 289 289 288 288 288 288 287 287 287 287 287 287 286 286 286 285 285 285 284 284 283 282 282 281 282 282 282 282 282 282 283 283 283 283 283 283 283 283 282 282 282 282 282 283 283 283 283 283
314 315 315 316 318 318 317 318 317 317 317 317 317 318 317 317 316 314 311 306 303 301 299 296 294 293 292 291 291 290 290 290 290 289 289 289 289 289 288 288 288 287 287 287 287 286 286 286 286 286 286 285 285 285 284 284 283 282 282 281 281 282 282 282 282 282 282 282 282 283 283 283 282 282 282 282 282 282 282 282 282 282 282 283 283
313 313 313 313 314 316 317 317 316 316 316 316 316 316 315 314 312 309 305 302 301 299 296 294 293 291 291 290 290 290 290 290 289 289 289 289 288 288 288 288 287 287 287 286 286 286 286 286 286 286 285 285 284 284 284 283 282 281 281 281 281 282 282 282 282 282 282 282 282 282 282 282 282 282 282 282 282 282 282 282 282 282 282 283 283
312 311 312 312 313 314 314 314 314 315 314 314 314 313 312 310 307 303 301 300 298 296 294 293 292 291 290 290 289 289 289 289 289 289 289 288 288 288 288 287 287 287 286 286 286 286 286 285 285 285 285 285 284 284 283 283 282 281 281 281 282 282 282 282 282 282 282 282 282 282 281 282 282 281 281 282 282 282 281 281 282 282 282 283 283
311 311 310 311 312 313 313 313 312 312 312 312 311 310 309 306 302 300 299 297 295 294 292 291 291 290 290 289 289 289 289 288 288 288 288 288 287 287 287 287 287 286 286 286 286 286 285 285 285 285 284 284 284 284 283 282 281 281 281 281 281 281 281 281 281 281 281 281 281 281 281 281 281 281 282 282 281 281 281 281 282 282 282 282 282
310 310 310 310 311 311 312 311 311 310 310 310 309 307 305 301 299 298 296 294 293 292 291 291 290 290 289 289 289 289 288 288 288 288 287 287 287 287 287 287 286 286 286 286 286 285 285 285 285 284 284 284 284 284 283 282 281 280 281 281 281 280 280 280 281 281 281 281 281 281 281 281 281 281 281 281 280 281 281 281 282 282 281 281 281
307 308 308 309 309 309 310 309 309 308 308 308 306 303 300 298 297 296 294 292 291 291 290 290 289 289 289 289 288 288 288 287 287 287 287 287 287 287 287 286 286 286 286 286 285 285 285 285 284 284 284 284 284 283 283 282 281 280 280 280 279 279 280 280 280 280 280 280 280 280 281 281 281 281 280 280 280 281 281 281 281 280 279 279 279
306 306 307 307 308 308 307 307 307 307 306 305 302 300 297 296 295 293 292 291 290 290 290 289 289 289 288 288 288 288 287 287 287 287 287 286 287 286 286 286 286 286 286 285 285 285 285 284 284 284 284 284 283 283 282 281 281 281 280 279 279 279 279 279 279 279 280 280 280 280 281 281 280 280 280 280 280 280 280 280 279 278 278 278 279
304 304 305 305 305 305 305 304 304 304 303 301 299 297 295 294 292 291 291 290 290 290 289 289 288 288 288 288 288 287 287 287 287 286 286 286 286 286 286 286 285 285 285 285 285 285 284 284 284 284 284 283 282 282 282 281 281 280 279 279 279 279 279 279 279 279 280 280 280 280 280 279 279 279 279 280 280 279 279 278 277 277 277 278 278
302 303 303 304 304 304 303 302 301 301 300 298 297 295 293 292 291 290 290 289 289 289 289 288 288 287 287 287 287 287 286 286 286 286 286 286 286 285 285 285 285 285 285 285 284 284 284 284 284 284 283 282 282 282 281 280 280 279 278 278 278 278 278 278 279 279 280 280 280 279 279 278 279 279 279 279 278 278 277 277 277 277 277 277 277
301 302 301 302 303 303 302 301 300 300 298 296 295 293 292 291 290 290 289 289 288 288 288 288 287 287 287 286 286 286 286 286 286 286 286 285 285 285 285 285 285 284 284 284 284 284 284 284 283 283 282 282 281 281 280 280 279 278 278 278 278 277 278 278 279 279 279 278 278 277 278 278 278 278 278 277 277 277 277 277 277 276 276 276 276
301 301 301 301 302 302 302 301 300 299 297 296 294 292 291 290 289 289 289 289 288 288 287 287 287 286 286 286 286 286 286 285 285 285 285 285 285 285 285 284 284 284 284 284 284 284 284 283 283 283 282 281 281 279 279 278 278 278 278 278 277 277 278 278 278 278 277 276 276 276 277 277 277 276 276 276 276 276 276 276 276 275 275 275 275
300 300 300 301 301 301 301 300 299 299 297 295 293 292 290 290 289 289 288 288 288 287 287 287 286 286 286 286 285 286 286 285 285 285 285 285 285 285 284 284 284 284 284 284 284 284 283 283 283 282 281 280 279 279 278 278 278 278 278 277 277 278 278 278 278 276 275 275 275 276 276 276 275 275 275 275 275 276 275 275 274 274 274 274 274
298 298 299 299 299 299 299 298 298 297 296 293 292 290 289 289 288 288 287 287 287 286 286 286 286 285 285 285 285 285 285 285 285 285 285 285 285 284 284 284 284 284 284 284 284 283 283 283 282 281 280 279 279 279 279 279 278 278 277 277 277 278 278 277 276 275 274 275 275 275 275 275 274 274 274 274 275 275 274 274 273 273 273 273 273
297 297 297 297 297 297 297 296 295 294 293 292 290 289 288 288 288 287 287 286 286 286 285 285 285 285 284 284 284 284 284 285 285 285 285 285 284 284 284 284 284 284 284 284 283 283 283 282 282 281 280 279 279 279 279 278 277 277 276 277 277 277 276 276 276 275 274 274 274 274 274 273 273 273 274 274 275 274 273 273 273 272 272 272 272
297 297 296 296 296 295 295 294 293 292 291 290 289 288 288 287 287 287 287 286 286 285 285 284 284 284 283 283 284 283 284 284 284 284 284 284 284 284 284 284 284 284 284 283 283 282 282 282 282 280 279 279 279 279 278 277 277 277 276 276 276 276 276 276 275 274 273 273 273 273 273 273 273 273 273 274 274 273 273 273 272 272 272 272 272
296 296 296 295 295 294 294 293 292 291 291 290 289 288 287 287 287 286 286 285 285 284 284 283 283 283 283 282 283 283 283 283 283 283 284 284 284 285 284 284 284 284 283 283 282 282 282 281 281 280 279 279 279 279 278 277 278 278 277 277 277 277 277 276 274 272 272 272 272 272 272 272 272 272 273 273 273 273 272 273 273 273 273 273 273
296 295 295 295 294 293 293 292 291 291 290 289 289 288 287 286 286 285 285 285 284 284 283 283 282 282 282 282 282 282 283 283 283 283 283 284 285 285 284 283 283 283 283 282 282 281 281 280 279 279 279 279 279 278 278 277 277 277 277 277 277 277 276 274 271 271 271 271 271 272 272 271 272 272 273 273 273 272 272 273 273 273 273 273 273
295 295 294 293 293 293 292 291 290 290 289 289 288 287 287 286 285 285 284 284 284 283 282 282 282 282 282 282 282 282 282 282 282 282 283 284 285 284 283 283 283 283 283 282 281 280 279 278 278 279 279 279 278 278 277 277 277 276 277 276 276 276 275 272 270 270 270 270 270 270 271 271 271 272 272 273 273 272 272 273 274 274 274 274 274
294 294 293 293 292 291 291 290 289 288 288 288 287 287 287 286 285 284 283 283 283 283 282 281 281 281 282 283 283 283 282 282 282 283 284 285 284 283 283 283 282 282 282 281 280 279 278 277 278 278 278 278 277 277 276 276 276 276 276 276 276 276 274 271 269 268 268 269 269 269 270 270 271 271 272 272 272 272 272 271 272 273 274 274 275
294 293 292 292 291 290 290 289 288 287 286 286 286 285 285 285 284 283 283 282 282 282 282 281 281 281 282 282 283 283 282 282 283 284 286 286 284 283 283 282 282 282 281 280 279 278 277 277 278 278 277 277 276 276 276 276 276 276 276 275 275 275 273 270 268 267 266 267 268 268 269 270 271 271 272 272 272 272 271 271 271 272 273 273 273
293 293 292 291 290 289 289 288 287 286 286 285 285 284 284 284 284 284 284 284 283 283 282 282 282 283 283 283 282 282 281 282 285 287 289 287 285 284 283 282 282 281 280 280 279 278 277 277 277 277 276 275 275 275 275 275 275 275 275 275 275 274 272 270 269 267 267 267 267 268 269 269 270 271 271 272 272 272 271 271 271 272 272 273 272
292 291 291 290 289 288 288 287 287 286 285 284 284 284 284 284 283 283 284 284 284 284 283 284 284 285 284 284 284 282 282 285 289 291 290 287 285 284 283 282 282 281 280 279 279 278 277 277 276 276 275 275 275 275 275 275 275 275 274 274 274 273 271 270 268 267 267 266 267 267 268 269 270 270 271 272 272 271 271 271 271 271 272 272 272
291 290 290 289 289 288 287 286 285 285 284 284 283 282 282 283 282 282 283 283 282 283 283 284 285 285 285 285 285 284 285 289 292 290 287 285 283 282 282 281 281 280 279 279 278 277 276 276 275 275 275 275 275 275 275 274 274 274 274 274 273 272 270 268 267 266 266 266 266 266 267 268 269 269 270 271 271 271 271 271 271 271 271 271 272
290 290 289 289 288 287 286 285 284 284 283 283 282 281 281 281 281 281 282 282 281 282 282 283 284 284 284 285 284 284 285 288 289 287 284 282 281 281 280 280 279 279 278 278 277 276 276 275 275 275 275 274 274 274 274 273 273 273 273 273 271 270 269 268 267 266 266 265 265 266 267 267 268 269 270 271 271 271 271 270 270 271 271 271 271
290 290 289 289 287 286 286 284 283 283 282 281 281 281 280 280 280 280 280 280 281 281 281 282 283 283 283 283 283 283 284 285 284 283 281 280 280 280 279 278 278 278 278 277 276 276 275 275 275 275 274 274 273 273 273 272 272 272 272 272 271 270 269 268 267 266 266 265 265 266 266 266 267 268 269 270 270 270 270 270 270 270 271 271 272
290 290 289 288 287 286 285 284 283 282 282 281 281 280 280 279 279 279 280 280 280 280 280 281 281 282 282 282 282 282 283 283 281 280 279 279 279 278 277 277 277 277 276 276 276 275 275 274 274 274 274 273 273 272 272 272 272 271 271 271 271 270 269 268 267 266 266 265 266 266 265 266 266 267 268 269 270 270 269 269 269 270 270 271 271
288 288 288 287 286 286 285 284 283 282 282 281 280 280 280 279 279 279 279 279 279 279 279 280 280 281 281 281 281 281 281 280 280 279 279 278 278 277 276 276 275 275 275 275 275 275 275 274 274 274 274 273 273 272 272 271 271 271 270 270 271 271 270 268 267 266 266 266 266 266 265 265 266 266 267 268 269 269 269 269 269 269 270 270 270
286 286 285 285 285 285 284 284 283 282 281 281 280 280 279 279 279 279 279 279 279 279 279 279 279 279 279 279 279 279 279 279 278 278 278 277 277 276 275 275 274 274 275 275 274 274 275 274 274 274 273 273 272 272 271 271 270 270 270 270 270 270 270 269 267 267 267 267 268 267 266 266 266 266 266 267 268 269 269 268 268 269 269 270 270
285 285 284 284 283 283 283 283 282 282 281 281 280 279 279 279 278 278 279 279 279 279 279 279 279 278 278 278 278 278 278 277 277 277 277 277 276 275 275 275 274 275 275 274 274 274 274 274 274 274 273 273 272 272 271 271 270 270 270 270 270 270 270 269 269 268 268 268 268 268 267 266 266 266 266 266 267 268 268 268 268 268 269 269 270
283 283 283 282 282 281 281 281 281 281 280 280 279 278 278 278 277 278 278 278 278 278 278 278 278 278 277 277 277 277 277 277 277 276 276 276 275 275 275 275 275 275 275 275 275 275 274 274 274 274 273 273 272 272 271 271 270 269 269 270 270 269 269 269 268 268 268 268 269 269 268 267 266 266 265 266 267 268 268 268 268 268 268 269 269
282 281 281 281 280 280 280 279 279 279 279 278 278 277 277 277 277 277 277 277 277 277 277 277 277 277 277 277 277 276 276 276 276 275 275 275 274 274 274 274 275 275 275 275 275 275 274 274 274 273 273 273 272 272 271 270 270 269 269 269 269 269 269 268 267 267 267 268 268 268 268 267 267 266 265 265 266 267 267 267 267 268 268 268 269
281 280 280 280 280 279 279 279 278 278 277 277 277 276 276 276 276 276 276 276 276 276 276 276 276 276 277 276 276 275 275 275 275 275 274 274 274 273 274 274 274 275 275 275 275 274 274 274 274 273 273 273 272 271 271 270 270 269 269 269 269 269 268 267 267 267 267 267 267 268 268 267 267 266 265 265 265 266 266 266 267 267 268 268 268
280 279 279 279 279 279 278 278 277 277 277 276 276 276 275 275 275 275 275 275 275 275 275 275 275 275 275 275 275 275 275 275 274 274 274 274 273 273 274 274 275 275 275 275 275 274 274 273 273 273 273 272 272 271 271 270 270 269 269 269 269 269 268 268 267 267 267 266 267 267 267 267 267 267 266 265 265 265 265 266 266 267 267 268 268
278 278 278 278 278 277 277 276 276 276 276 275 275 275 275 275 274 274 274 274 274 274 274 274 274 274 275 275 275 275 275 275 275 274 274 274 273 274 274 275 275 275 275 275 275 274 273 273 273 273 272 272 271 271 271 270 270 269 269 269 269 269 268 268 268 268 267 266 266 267 267 267 267 267 266 265 265 265 265 265 266 266 267 268 268
277 277 277 276 276 276 275 275 275 275 274 274 274 274 274 274 273 273 273 273 273 273 273 273 274 274 274 274 274 274 275 275 274 274 274 274 273 274 275 275 275 275 275 275 274 274 273 273 273 272 272 271 271 271 271 270 270 269 269 269 269 268 268 268 268 268 267 266 265 266 266 267 267 267 267 266 265 265 265 266 266 266 267 267 267
276 276 275 275 274 274 274 274 274 273 273 273 273 273 273 272 272 272 272 272 272 272 272 272 273 273 273 273 273 273 273 273 273 273 273 273 274 274 275 275 275 274 274 274 273 273 273 272 272 272 271 271 271 271 270 270 269 269 269 269 269 268 268 268 268 268 267 266 265 265 265 266 267 267 267 267 266 266 266 266 266 266 267 267 267
276 275 275 274 274 273 273 273 272 272 272 272 272 272 271 271 271 271 271 271 271 271 271 271 272 272 272 272 272 271 271 271 272 272 272 272 273 274 275 275 274 273 273 273 272 272 272 272 271 271 270 270 270 270 270 269 269 268 268 268 268 268 268 267 267 267 267 266 265 264 265 266 267 267 266 266 266 266 266 266 266 266 267 267 266
275 275 274 274 273 273 272 272 271 271 271 270 270 270 270 270 270 270 270 270 270 270 270 271 271 271 271 271 271 271 271 271 271 271 271 272 273 274 274 274 273 273 272 272 272 271 271 271 270 270 270 269 269 269 269 268 268 268 268 268 268 267 267 267 267 267 266 266 265 265 264 265 266 267 266 266 266 266 266 266 266 266 266 266 266
274 274 273 273 272 272 271 271 271 270 270 269 269 269 269 269 269 269 269 269 269 269 269 270 270 270 270 270 270 270 270 270 270 270 271 271 273 273 273 273 273 272 272 271 271 271 270 270 270 270 269 269 268 268 268 267 267 267 267 267 267 267 266 266 266 266 266 266 266 265 265 265 266 266 266 265 265 265 266 266 266 266 266 266 266
273 272 272 271 271 270 270 270 269 269 268 268 268 268 268 268 268 268 268 268 268 269 269 269 269 269 269 269 269 269 270 270 270 270 270 271 272 273 273 273 272 272 271 270 270 270 270 270 270 269 269 269 268 268 267 267 267 267 267 267 267 267 266 266 265 265 265 265 265 265 265 265 265 266 265 265 265 265 265 266 266 266 266 266 266
271 271 270 270 269 269 269 268 268 268 267 267 267 267 267 267 267 267 268 268 268 268 268 268 268 268 268 268 269 269 269 269 269 269 270 270 271 272 272 272 271 271 270 270 269 269 269 269 269 269 269 268 268 268 267 267 267 267 267 267 267 267 267 266 265 265 265 265 265 265 265 264 264 265 265 264 264 264 265 265 265 266 266 266 266
270 269 269 268 268 268 268 267 267 267 267 266 266 266 266 266 266 267 267 267 267 267 267 267 267 267 267 268 268 268 268 268 268 268 269 270 270 271 271 271 270 270 269 269 269 269 269 269 269 269 268 268 268 268 268 268 268 268 267 267 267 267 267 266 266 265 265 264 264 264 264 263 263 264 264 264 264 264 264 264 265 265 265 266 266
269 268 268 267 267 267 267 266 266 266 266 265 265 265 265 265 266 266 266 266 266 266 267 267 267 267 267 267 267 267 267 267 268 268 268 269 269 270 270 270 269 269 268 268 268 269 269 269 268 268 268 268 268 268 268 268 268 268 267 267 267 267 267 266 266 266 265 265 264 264 264 263 263 264 264 263 263 263 264 264 264 264 265 265 266
268 267 267 266 266 266 266 265 265 265 265 264 264 264 264 265 265 265 265 265 266 266 266 266 266 267 267 267 267 267 267 267 267 267 268 268 269 269 269 269 269 268 268 268 268 268 268 268 268 268 268 268 268 268 268 268 268 268 268 268 268 267 267 266 266 266 266 265 265 265 265 264 264 264 264 263 263 263 263 263 263 264 264 264 265
Wind_Speed
24 26 27 28 29 29 30 31 32 33 33 32 31 32 31 29 29 31 30 27 24 19 17 19 21 22 23 24 24 23 22 21 20 19 18 17 15 13 12 11 9 8 7 6 6 5 3 4 5 6 7 8 9 10 11 11 12 12 11 11 11 9 8 7 8 18 30 32 32 35 34 35 38 39 41 46 48 47 46 49 50 47 41 38 37
22 24 25 26 27 28 29 30 31 32 32 32 33 33 32 30 30 32 30 26 22 19 19 22 24 25 26 25 24 23 22 22 21 20 18 17 15 14 12 10 8 7 7 6 6 4 3 4 5 6 7 9 10 10 11 12 12 13 12 12 12 11 9 9 10 14 25 34 36 36 35 34 35 39 39 40 45 49 49 52 52 48 44 41 39
19 21 23 25 26 27 28 29 30 31 32 33 34 34 33 32 32 32 28 23 21 20 22 25 27 27 27 26 25 24 23 22 21 19 17 16 15 14 12 10 8 7 7 5 4 3 3 4 5 7 8 9 10 11 11 12 12 12 12 12 12 12 10 9 11 13 19 31 35 34 36 37 34 36 39 38 39 44 48 50 50 49 47 44 42
19 21 23 25 26 26 28 29 30 31 32 33 34 34 34 35 33 30 25 22 22 23 25 27 29 29 28 26 25 24 24 23 21 19 17 15 14 13 12 10 8 7 6 4 3 2 3 4 6 7 8 9 10 11 11 12 13 13 13 13 12 12 11 8 10 12 16 24 31 30 31 35 36 36 38 40 39 41 44 46 45 44 42 39 38
20 22 24 25 26 27 28 29 31 32 32 32 32 33 34 34 32 28 25 24 26 27 28 30 30 30 28 27 26 25 24 23 21 20 18 16 14 12 11 10 8 6 4 3 2 2 4 5 7 8 9 9 10 11 11 12 13 13 13 14 13 11 10 9 9 12 15 19 28 31 28 29 34 34 31 33 37 39 40 41 40 39 40 40 38
21 23 24 25 26 27 29 29 30 31 32 32 32 32 33 31 29 27 26 27 29 30 31 32 31 29 28 26 25 25 24 22 21 20 18 16 14 12 10 9 7 5 4 2 2 3 4 6 7 8 9 10 10 10 12 12 13 14 14 13 12 10 10 11 11 13 15 17 22 28 28 25 30 33 31 30 31 32 34 38 39 38 40 42 42
21 24 25 25 25 27 29 29 30 31 31 32 32 32 31 28 26 26 27 29 32 33 34 33 31 29 27 26 26 25 24 22 21 19 17 15 13 11 10 8 6 5 3 2 2 3 4 6 7 8 9 10 10 10 12 12 12 13 13 11 11 11 11 12 12 13 15 17 19 22 24 24 25 29 32 31 29 26 27 33 38 39 39 41 43
22 24 26 27 27 27 27 27 28 30 31 31 30 29 28 26 26 28 30 32 34 35 35 33 31 29 27 27 26 25 24 22 21 19 17 15 13 11 10 8 6 5 4 2 2 3 4 5 6 7 8 9 10 10 11 12 12 12 11 10 10 11 11 12 14 14 14 16 19 20 22 23 23 26 30 30 28 28 29 32 35 37 38 41 41
23 24 25 26 27 28 28 28 28 29 29 28 28 26 26 27 28 30 32 34 35 35 34 33 31 29 28 27 26 25 23 22 20 18 16 15 13 11 9 8 6 4 3 3 2 3 4 5 6 7 7 8 9 10 10 10 11 10 10 9 9 11 12 13 14 15 15 15 16 19 21 21 22 25 29 29 29 31 33 33 33 35 38 39 39
22 24 25 25 25 26 27 28 29 28 28 27 25 25 26 28 31 33 34 35 36 35 34 32 31 30 29 28 26 25 23 21 20 17 15 14 13 11 9 8 6 4 3 2 2 3 3 5 5 6 7 8 9 10 10 10 10 9 8 8 10 11 13 14 14 15 16 16 15 17 20 22 22 24 27 29 30 31 32 33 33 36 36 34 35
23 23 23 24 24 25 26 27 27 26 25 24 24 25 29 31 33 35 36 36 36 35 33 32 30 30 29 28 27 25 23 21 20 17 16 14 12 10 9 7 6 5 3 2 2 2 3 4 5 6 7 9 10 10 10 11 11 9 7 8 9 11 12 14 15 15 15 16 16 16 18 22 24 24 26 29 31 31 32 33 32 33 32 28 28
26 25 24 23 24 25 26 26 25 25 24 24 26 29 32 34 35 36 37 36 35 34 33 32 31 30 29 28 26 25 23 21 19 17 16 14 12 10 8 6 5 4 2 1 2 2 3 4 5 7 8 9 10 10 10 12 12 9 8 9 9 10 11 12 15 16 16 16 17 16 17 22 24 24 25 29 31 33 33 32 30 31 31 28 25
26 26 26 25 25 25 25 25 25 25 26 27 29 32 34 36 37 37 37 36 35 34 33 32 31 30 29 28 26 25 23 21 19 17 15 13 11 9 7 6 5 3 2 1 2 2 3 4 5 7 8 9 9 10 11 13 12 10 10 11 10 11 11 11 12 14 14 16 17 18 19 21 24 25 26 28 31 32 31 30 31 32 31 29 26
26 26 26 26 27 27 27 27 27 28 29 30 32 34 36 37 37 37 37 36 35 34 33 32 31 30 29 28 26 25 23 21 19 17 15 13 11 9 7 5 4 2 2 1 2 3 4 5 6 7 8 8 9 10 12 12 11 10 12 12 11 11 11 11 12 12 12 14 17 20 20 20 22 25 26 27 28 28 28 28 31 34 33 31 28
27 27 27 27 28 28 29 29 30 30 31 33 34 35 36 37 37 37 36 36 35 35 34 33 32 31 29 27 26 24 22 20 18 16 15 13 10 9 7 5 4 3 2 1 2 3 5 6 7 7 8 8 9 10 10 10 10 11 12 12 11 11 10 11 11 11 12 14 16 19 20 19 21 23 24 25 25 25 27 27 28 30 31 30 26
27 27 28 29 29 30 30 31 31 32 33 34 35 36 37 37 37 37 36 35 35 34 33 33 32 31 29 27 26 24 22 20 18 16 14 13 10 9 7 5 4 3 2 1 2 4 5 6 7 7 7 7 9 9 9 10 11 12 12 12 11 11 11 12 11 10 12 14 16 18 19 19 20 20 21 21 22 25 26 25 24 24 26 27 24
28 29 29 30 31 31 31 32 33 34 35 36 37 38 38 38 38 37 37 36 35 34 33 32 31 30 29 27 25 24 23 20 18 16 14 12 10 9 7 5 4 3 3 2 2 4 5 6 6 6 7 8 9 9 9 10 11 12 12 11 12 12 12 13 12 11 12 14 15 16 17 17 17 16 17 18 20 23 23 23 23 23 23 22 20
30 31 31 31 31 31 32 33 34 35 36 38 39 39 38 38 38 37 37 37 35 34 33 32 31 29 28 27 25 23 22 20 18 16 14 12 10 9 7 6 5 4 2 1 2 3 4 5 6 5 7 8 8 8 9 10 11 12 11 12 13 13 13 13 13 14 15 16 16 15 15 14 14 13 14 17 18 18 19 20 23 22 21 19 19
31 31 31 30 31 32 32 33 35 36 37 38 39 39 39 38 37 36 36 35 35 34 33 32 31 29 27 26 24 23 21 20 18 16 14 12 10 9 8 6 5 4 2 1 1 2 3 4 5 5 6 7 7 8 8 9 11 11 11 12 13 13 13 14 16 18 18 17 16 15 13 13 13 13 13 15 15 15 16 18 19 20 19 19 20
27 27 28 28 29 30 31 33 34 35 37 37 37 37 37 37 36 35 34 34 33 33 32 31 30 29 28 26 24 23 21 20 18 16 14 12 11 9 8 6 4 3 2 1 1 2 2 2 3 4 5 6 7 7 8 9 9 10 10 11 13 15 17 18 19 18 17 17 15 14 12 12 13 13 13 14 13 14 16 17 17 18 18 18 19
23 24 25 26 27 29 30 31 32 33 34 34 34 35 35 35 35 35 34 33 32 32 31 31 31 30 28 26 25 23 21 20 18 16 14 12 11 9 7 5 4 3 2 2 2 2 1 2 3 3 4 5 6 7 7 7 8 9 9 10 13 16 18 20 20 17 16 16 15 14 13 12 12 13 14 14 14 16 19 20 19 19 18 18 19
20 22 23 24 26 27 28 30 30 31 31 32 33 33 33 33 34 34 34 33 33 33 32 32 31 30 28 27 25 24 22 20 19 16 14 12 10 8 6 6 5 4 3 3 3 2 2 2 2 3 3 4 5 5 6 6 7 8 9 11 14 16 17 18 18 17 16 16 15 15 14 13 14 15 15 15 17 20 23 23 22 20 17 15 15
18 20 22 24 25 27 28 29 30 31 31 32 33 33 33 34 34 34 35 34 34 33 32 32 31 30 29 28 26 25 24 22 19 17 14 12 9 8 8 7 6 5 4 4 3 3 2 1 1 2 2 3 4 4 4 6 7 8 9 11 13 14 15 15 15 16 16 15 14 14 14 15 16 17 18 19 20 22 24 25 23 20 17 14 9
18 20 22 24 25 26 27 28 30 31 32 32 33 34 34 34 34 34 35 35 35 34 33 33 32 31 30 29 28 26 25 23 20 18 15 12 11 10 9 8 8 7 5 4 4 4 3 1 1 1 2 3 3 4 4 6 7 8 9 10 11 11 13 14 14 15 15 14 13 13 14 15 17 18 19 21 22 23 25 24 22 19 18 14 9
17 19 21 23 24 25 26 27 29 30 31 33 34 35 36 35 35 35 35 36 36 35 34 33 32 32 32 31 30 28 26 24 22 19 16 14 13 13 11 10 9 8 7 5 5 4 4 3 3 2 2 3 3 3 4 5 6 7 8 8 10 11 11 13 13 13 12 12 12 13 14 15 17 18 19 20 20 23 26 25 21 18 17 15 11
17 18 20 21 22 24 25 26 27 28 30 32 34 35 37 37 37 36 36 35 34 34 33 33 31 31 32 32 31 30 28 26 23 20 17 16 16 15 13 12 11 10 8 7 6 6 6 6 4 2 2 3 3 3 4 4 5 6 7 8 9 10 11 11 12 12 11 11 12 13 14 15 17 18 18 18 19 22 25 26 22 19 18 16 14
16 17 19 20 21 23 24 25 27 28 29 30 31 32 34 35 35 36 36 35 34 32 33 33 32 32 33 33 32 31 29 27 24 21 20 19 18 17 15 15 14 12 10 9 9 8 8 7 4 2 3 4 4 4 3 3 4 5 6 7 8 9 9 9 9 9 10 10 11 12 13 14 16 17 16 16 18 21 24 24 21 20 19 17 15
15 16 18 19 20 21 23 24 26 27 28 29 30 31 32 34 35 36 38 39 38 36 35 36 36 36 36 36 34 31 30 28 25 23 22 20 19 19 19 18 16 14 13 12 10 9 8 6 4 3 4 5 6 4 3 2 3 4 5 6 7 8 9 9 9 9 9 9 10 12 13 13 14 16 16 15 16 19 22 21 19 18 17 16 15
15 15 16 17 19 20 22 23 24 26 27 28 29 30 32 34 35 36 37 37 38 38 38 39 40 40 38 38 36 34 33 30 25 22 21 20 20 21 21 20 18 15 14 12 10 9 8 7 6 5 6 7 7 5 3 2 1 3 4 5 6 8 10 11 11 11 11 11 11 11 12 12 14 15 15 14 16 19 20 20 18 17 16 16 14
14 15 15 17 18 20 21 22 23 25 26 27 28 28 28 30 32 33 33 33 34 34 35 37 38 38 37 37 36 35 33 27 23 22 23 22 23 22 21 19 17 15 14 13 10 9 9 9 8 8 8 8 7 5 3 2 1 1 2 4 5 7 9 10 11 11 11 11 11 10 10 11 13 15 15 14 16 19 20 19 17 16 15 15 14
14 14 15 16 18 19 20 21 22 23 24 26 27 27 26 26 28 30 31 31 31 32 32 32 34 35 35 35 35 34 30 24 21 23 24 23 23 22 20 17 16 15 15 13 11 11 11 10 10 9 9 8 6 4 2 1 2 2 2 3 5 6 8 9 10 10 11 11 11 10 10 11 12 14 14 14 15 18 19 19 18 16 15 14 14
13 13 14 15 16 18 19 20 21 22 23 24 26 26 25 24 24 26 28 28 29 29 30 30 30 31 33 33 33 32 29 23 20 22 24 23 21 20 18 17 17 16 15 13 13 13 12 12 11 9 8 8 6 4 2 1 2 2 2 3 4 6 7 8 9 9 10 11 11 10 10 11 12 13 13 13 14 16 18 19 18 17 15 14 13
11 11 12 14 15 17 18 20 21 23 24 24 26 27 27 26 25 24 24 24 25 26 27 29 29 29 30 31 30 29 26 22 20 22 23 22 21 19 18 17 17 17 16 15 15 15 14 12 11 10 9 8 6 4 3 2 2 1 1 3 4 5 6 6 7 8 9 10 10 10 11 11 12 12 12 12 13 14 15 17 18 17 16 15 15
10 10 11 12 14 16 18 19 21 23 24 25 26 27 28 28 26 24 22 21 21 22 24 26 27 27 28 27 27 27 24 22 22 23 23 21 21 20 18 17 17 17 16 16 16 15 14 13 12 11 10 9 7 6 4 3 3 2 1 2 3 4 5 5 6 8 9 9 10 11 11 11 11 11 11 12 12 12 13 16 18 17 16 16 16
9 10 10 11 12 14 16 18 20 22 23 25 26 27 28 28 26 25 25 24 24 23 24 25 25 25 25 25 25 25 24 23 23 23 22 22 21 20 20 20 19 19 18 18 17 16 14 14 13 11 11 9 8 7 5 4 4 3 2 1 1 3 3 4 6 7 8 9 11 11 12 12 11 11 10 11 12 12 13 15 17 17 16 16 16
9 10 10 11 12 13 14 16 18 20 22 24 25 26 27 26 25 25 26 26 25 25 24 24 23 22 22 23 24 24 23 23 22 22 22 22 21 22 23 24 23 22 20 18 18 17 15 14 13 12 11 10 8 7 6 5 5 4 2 1 0 2 3 3 4 6 7 8 10 11 12 12 12 11 11 11 11 10 11 14 17 17 16 15 15
9 10 10 11 11 12 13 15 16 18 20 22 23 24 24 25 26 26 26 26 26 24 23 24 24 22 21 22 23 22 20 19 20 20 20 20 21 24 26 26 24 23 22 20 19 18 17 16 15 13 12 10 9 8 7 6 6 5 4 2 0 2 3 3 4 5 5 7 8 10 11 12 11 11 11 10 10 10 11 13 16 17 16 15 15
7 8 9 10 11 11 12 13 15 16 18 20 21 22 23 24 25 25 26 26 25 24 24 25 26 26 26 26 25 23 20 18 18 20 21 22 24 26 28 26 25 24 23 21 20 19 18 17 16 14 13 12 10 10 8 8 7 7 5 3 2 2 4 5 4 4 5 6 8 9 11 11 11 11 10 10 10 10 11 13 16 17 17 16 15
6 7 8 9 10 11 12 13 14 16 17 19 20 21 22 24 25 25 26 25 25 25 25 26 28 30 30 28 27 26 24 23 24 26 27 28 29 30 30 28 27 26 24 22 21 21 20 19 17 16 14 13 12 11 10 9 9 8 7 5 3 3 4 6 5 5 5 6 8 9 10 11 11 11 11 10 9 10 11 14 15 16 16 17 16
5 6 7 8 10 11 13 14 15 16 17 19 20 21 23 24 25 26 26 25 25 25 25 26 28 30 30 30 30 30 30 30 31 31 32 33 33 34 32 31 30 28 26 24 23 22 21 20 18 17 16 14 13 12 11 10 10 9 8 6 4 4 5 6 6 6 6 6 7 9 10 11 11 12 11 10 10 10 12 14 14 14 14 15 15
5 6 7 8 9 11 12 14 15 17 18 19 20 21 23 24 25 26 26 26 27 27 27 28 30 30 30 31 32 33 34 34 33 33 34 36 36 36 35 33 31 29 27 25 24 23 22 21 20 18 17 16 14 13 12 11 11 10 9 7 6 5 6 7 6 6 6 7 8 8 10 11 11 12 12 12 11 12 13 14 14 14 13 13 14
6 6 7 7 9 10 12 14 15 16 17 19 20 22 23 23 24 25 26 27 27 27 28 29 30 30 31 33 33 34 36 36 35 34 36 37 37 37 35 32 30 28 27 26 25 24 23 23 21 20 18 17 16 15 13 12 12 12 10 9 7 7 7 7 7 7 7 7 8 9 10 10 10 11 12 13 13 13 14 15 14 14 13 13 13
7 7 8 9 10 11 12 13 14 15 17 18 20 21 22 23 24 25 26 27 27 27 28 29 29 29 31 32 32 34 36 37 36 36 37 38 39 38 35 32 29 28 27 26 25 24 24 23 22 21 19 18 16 15 14 13 13 13 11 10 9 9 9 8 7 7 8 8 9 9 10 10 10 11 12 12 13 13 14 15 15 14 14 13 12
8 8 9 10 11 12 13 13 14 16 17 18 19 20 21 22 24 24 25 26 27 27 28 29 28 28 30 30 31 33 36 38 38 39 39 39 39 38 35 32 30 29 28 27 26 26 25 24 23 21 20 18 17 16 15 15 15 14 13 12 11 11 10 9 8 8 9 10 10 10 11 10 10 10 11 12 13 14 14 15 15 15 14 13 13
9 9 10 11 12 13 14 14 15 16 17 18 19 20 21 22 23 24 25 26 27 27 28 29 28 28 29 30 31 34 37 38 39 40 41 41 40 38 34 32 31 30 29 28 27 27 26 24 22 21 20 19 17 17 16 16 15 15 14 13 13 12 11 10 10 10 11 11 11 12 12 12 11 11 11 12 13 13 14 14 14 14 14 13 13
10 10 11 12 13 14 15 15 16 16 17 18 20 21 21 22 23 24 25 26 27 27 28 28 28 29 30 31 32 34 35 36 38 39 40 41 41 38 35 34 33 31 29 28 28 27 25 24 22 21 20 18 18 17 17 17 16 16 15 15 14 13 12 11 12 13 13 12 12 12 13 13 12 11 11 12 12 13 13 14 14 14 13 13 12
11 12 12 13 14 15 16 16 16 17 18 19 20 21 22 22 23 24 25 26 26 27 28 28 28 29 30 31 32 34 35 36 37 38 39 40 39 38 37 36 33 31 29 28 28 27 25 24 22 21 20 19 19 18 18 17 16 16 16 15 14 13 13 13 14 14 14 13 13 13 14 14 13 12 11 11 12 13 13 14 14 13 13 12 12
12 13 13 14 15 16 17 17 17 18 19 19 20 21 22 22 23 24 25 25 26 27 27 28 28 29 30 31 32 33 34 35 35 36 37 38 38 37 36 35 32 30 29 29 28 27 25 24 23 22 21 20 19 19 18 17 17 16 16 15 14 13 13 14 15 15 14 14 14 14 14 14 14 13 12 12 12 13 13 14 14 14 13 13 12
13 14 14 15 16 17 17 17 18 19 19 19 20 21 22 22 23 24 24 25 26 26 27 28 28 29 29 30 31 32 32 33 33 34 35 36 36 35 34 32 31 30 30 29 28 26 25 24 23 22 22 21 20 19 17 16 16 16 15 14 14 13 13 14 14 14 14 14 15 14 14 14 14 14 14 13 13 13 13 14 15 14 14 13 13
15 15 15 16 16 17 17 18 19 19 19 20 21 22 22 22 23 23 24 24 25 26 26 27 28 28 29 30 30 31 32 33 34 35 35 35 34 32 31 30 30 30 29 28 27 26 24 23 23 23 23 22 21 19 17 16 16 15 14 14 13 13 13 13 13 13 13 14 14 13 13 14 14 15 15 15 14 14 14 14 15 15 14 14 13
16 16 16 16 17 17 18 18 19 20 20 20 21 22 22 23 23 23 24 24 25 26 26 27 28 29 29 30 30 31 31 32 33 34 35 34 33 31 30 29 29 29 28 27 26 25 23 23 23 23 23 22 21 19 18 17 16 15 14 13 13 12 12 12 12 12 12 12 13 13 13 13 14 15 15 15 15 15 15 15 15 15 15 15 14
Wind_Direction
219 218 218 218 219 217 216 215 213 213 211 208 209 208 205 207 207 199 193 194 200 210 217 210 204 194 181 176 172 169 170 169 169 172 173 170 167 165 161 162 164 151 144 145 138 130 108 84 62 45 33 21 17 13 9 7 4 3 0 356 357 357 340 313 280 294 307 315 321 325 331 335 335 337 338 338 339 338 337 335 335 335 334 332 330
221 219 217 217 218 216 215 213 211 209 207 205 206 204 203 205 203 195 191 196 206 217 215 202 194 185 177 175 173 172 173 172 172 175 177 174 168 165 165 166 164 156 153 152 141 122 88 66 47 34 23 14 14 12 7 4 0 357 355 352 349 349 346 327 303 299 305 313 320 326 331 333 333 335 336 335 335 336 334 334 335 335 333 332 329
221 217 215 214 215 214 213 211 209 207 205 204 203 202 201 198 196 194 193 199 209 213 206 195 186 180 177 175 174 174 175 174 174 177 179 178 171 166 165 166 166 163 161 154 132 104 72 47 35 30 22 14 11 10 5 360 356 353 349 348 345 342 342 331 312 302 302 310 318 324 329 331 330 331 333 333 332 332 331 332 334 333 332 331 330
215 211 209 209 209 209 209 207 205 204 204 203 199 198 196 190 190 194 198 206 208 202 196 189 181 178 178 177 176 177 177 176 176 178 179 178 174 168 166 167 169 167 160 142 111 82 44 28 26 23 19 14 8 3 1 355 351 350 346 344 345 339 335 329 312 305 301 306 313 318 324 326 326 328 333 334 332 330 329 330 330 328 327 328 329
208 205 203 203 203 203 204 204 202 200 201 199 195 193 191 188 189 195 203 207 201 192 188 183 180 180 179 179 179 179 179 180 179 178 177 176 173 170 168 169 168 161 148 124 95 55 26 22 20 16 11 8 5 357 354 352 347 346 346 344 344 339 330 326 316 309 303 301 308 315 319 322 324 326 331 333 330 329 329 327 326 325 325 328 329
204 202 200 200 201 200 200 200 198 197 196 194 191 190 190 190 192 198 203 200 192 186 183 181 180 181 181 181 181 180 180 181 180 179 177 174 172 172 171 169 162 153 139 120 86 37 23 20 14 10 3 359 359 354 349 348 345 346 348 346 342 339 331 327 321 313 309 303 304 312 316 321 324 323 326 330 328 326 327 326 324 326 327 328 329
203 201 198 198 200 199 197 195 195 194 193 190 188 188 190 194 198 201 199 193 186 182 180 179 181 181 181 182 182 182 181 180 180 180 177 173 174 174 171 165 159 154 146 125 76 35 22 19 11 4 359 355 354 353 349 347 347 348 350 347 343 339 332 326 322 315 312 309 307 309 312 318 320 318 321 327 326 325 328 327 324 326 328 327 327
202 200 198 196 197 196 194 194 193 190 188 187 188 191 194 199 201 198 192 188 184 181 180 180 179 180 182 182 182 183 182 181 181 180 176 174 176 174 170 166 163 157 145 117 66 39 20 14 10 1 358 356 352 352 352 349 349 352 351 349 345 337 330 325 321 317 313 311 310 310 313 317 319 318 321 327 329 327 330 329 323 323 326 325 326
201 198 197 196 194 191 191 192 191 190 189 190 193 196 198 198 195 190 186 184 182 180 180 181 180 179 181 182 182 183 183 182 182 180 178 176 175 172 170 167 164 158 139 112 69 43 19 8 8 1 355 354 352 353 355 353 352 353 352 348 342 334 327 323 320 316 314 312 312 315 316 317 322 324 323 326 327 325 328 329 323 321 324 323 324
201 197 195 194 193 192 191 190 190 191 192 193 195 197 197 193 188 185 183 182 181 180 181 181 181 181 181 181 181 181 182 182 180 179 178 177 175 174 172 168 162 153 134 109 69 34 20 8 2 357 353 353 355 355 355 355 354 355 353 344 336 330 324 321 318 315 314 314 316 320 319 317 321 323 320 319 322 324 326 328 323 321 324 324 325
205 202 199 195 193 192 192 191 192 193 195 197 199 198 194 189 185 183 181 181 181 181 181 181 182 183 184 183 182 181 181 182 180 178 177 176 178 177 172 169 162 151 140 104 66 27 16 6 356 354 355 353 354 356 355 354 357 0 355 341 332 325 321 318 315 314 314 313 315 319 316 313 316 319 319 320 323 324 324 324 322 322 325 327 328
207 207 206 203 199 197 197 198 198 199 201 203 201 195 190 186 183 182 181 181 181 180 181 182 182 184 185 183 183 183 181 181 180 179 178 177 179 179 174 171 164 153 142 98 61 32 14 3 354 353 355 354 352 351 349 353 0 2 347 335 328 321 317 312 309 311 313 312 313 314 312 311 313 317 320 321 322 321 322 323 323 323 324 327 328
208 207 207 209 209 207 206 205 204 205 204 201 196 190 187 185 183 182 181 181 181 181 182 184 184 185 185 184 184 183 181 181 180 179 179 179 179 179 175 171 165 153 129 89 36 19 10 3 359 357 353 351 350 348 351 357 360 354 340 334 329 324 319 310 305 305 306 308 307 305 306 310 311 314 318 319 319 320 322 325 327 326 324 324 325
208 208 209 210 212 212 211 209 206 204 200 195 192 189 187 184 183 183 182 181 182 182 183 184 185 185 186 186 184 183 182 182 181 179 179 180 180 179 176 171 163 147 123 82 23 6 3 3 3 358 353 350 348 352 358 360 352 342 336 333 330 327 319 312 308 304 304 305 302 301 305 309 310 311 315 319 319 320 322 325 326 323 317 316 319
205 207 208 209 210 210 209 205 201 198 194 192 191 188 186 185 184 184 184 183 184 184 184 185 186 185 186 186 184 182 182 183 182 180 180 181 180 178 176 173 161 143 120 79 24 3 2 2 359 355 352 349 351 359 2 352 339 333 331 329 328 322 315 315 313 305 307 307 301 301 305 308 311 313 317 320 321 320 321 321 319 316 312 312 316
202 204 205 205 206 206 203 199 196 195 193 191 190 188 187 187 186 185 184 184 185 185 185 186 187 186 185 186 185 182 182 184 183 182 182 183 182 180 177 173 161 146 123 82 22 5 1 357 353 351 348 348 354 3 359 340 329 329 329 330 327 315 317 331 326 308 306 306 301 302 305 308 314 317 319 322 322 322 322 319 319 321 318 316 318
202 203 203 203 203 202 201 198 196 194 193 191 190 189 189 188 188 186 185 184 184 185 186 186 187 188 186 185 186 184 182 184 186 185 185 184 183 182 178 172 164 152 128 87 18 2 354 349 349 346 344 353 0 358 346 333 330 333 331 328 323 317 323 338 333 313 306 305 303 303 306 312 319 321 323 325 326 327 326 324 325 328 324 320 320
204 204 205 205 203 203 202 200 198 196 195 193 192 190 190 190 189 188 187 186 185 185 187 186 186 188 188 186 188 188 185 185 188 189 188 187 186 184 182 178 169 157 132 82 15 354 347 343 343 342 348 358 359 346 337 335 336 338 331 324 323 324 328 332 325 314 312 317 319 315 313 319 325 326 328 330 331 334 332 328 327 326 324 320 317
207 207 207 207 206 206 204 202 202 200 197 196 193 192 192 191 189 189 188 188 186 185 186 186 185 186 188 188 188 189 189 187 189 193 191 188 189 189 188 186 172 157 141 89 343 332 340 338 335 343 354 356 346 336 337 343 342 336 328 323 324 326 328 324 319 316 318 324 327 323 321 327 330 329 332 334 337 340 337 330 327 323 320 317 315
210 209 210 209 207 207 206 204 204 203 200 197 194 193 193 191 189 188 187 188 186 185 185 186 185 185 186 187 188 190 192 191 192 196 194 190 193 195 194 194 186 178 179 182 264 294 321 325 329 349 357 345 336 334 343 351 343 329 325 328 326 324 322 316 313 318 324 325 324 322 323 328 331 333 336 339 342 343 339 335 330 324 318 312 311
213 211 211 210 208 209 208 206 206 204 200 197 195 194 193 191 189 188 187 186 185 184 184 185 186 185 185 187 189 190 193 194 195 197 197 194 194 197 204 211 210 210 218 216 229 246 266 297 325 354 356 339 334 340 348 347 330 320 326 329 321 316 315 312 315 326 331 328 326 327 329 334 339 340 341 342 343 343 342 343 340 336 328 315 309
215 213 211 210 210 209 208 207 205 203 201 198 196 194 193 193 192 190 188 187 185 184 184 184 184 184 184 187 190 190 192 195 196 197 200 201 199 203 218 231 230 227 228 224 225 241 261 287 328 350 349 338 338 344 342 324 310 311 316 313 308 308 309 313 324 334 334 330 330 332 335 341 343 342 343 344 343 343 345 347 347 346 344 333 319
214 212 210 210 210 209 208 207 206 204 203 201 199 197 194 193 193 191 189 187 184 183 183 183 184 183 184 186 189 191 193 195 196 196 199 203 210 220 228 234 239 239 234 226 225 239 256 281 331 343 332 329 330 328 312 301 304 307 304 303 306 309 313 323 334 336 334 333 333 333 337 341 340 341 344 343 342 343 346 349 351 353 356 355 343
210 208 208 208 208 208 208 207 206 205 204 202 200 198 196 193 192 192 190 188 185 184 184 184 184 184 185 186 188 192 194 195 196 197 199 205 218 227 227 230 239 242 238 232 229 228 231 240 239 266 292 301 308 306 294 291 297 300 302 308 314 317 325 336 340 337 334 335 333 331 335 336 336 338 340 339 341 345 348 351 356 360 2 8 12
205 204 206 206 206 207 206 206 207 206 204 203 201 199 197 194 192 192 191 190 188 186 185 186 187 187 188 189 191 194 195 196 197 198 201 210 221 223 221 227 237 241 237 230 227 220 210 208 208 220 270 287 291 286 278 278 286 298 308 317 322 327 337 342 340 337 333 331 328 326 328 332 335 337 338 338 343 348 350 352 359 6 8 14 25
202 203 205 206 206 206 205 204 205 205 206 206 204 203 200 197 194 192 191 191 190 189 188 188 189 191 192 194 195 195 195 197 198 199 205 215 219 218 218 224 230 233 231 220 211 205 202 201 204 215 252 267 256 243 253 268 287 308 322 328 330 337 345 344 340 337 330 323 323 325 328 333 335 336 338 341 345 349 351 351 356 5 9 11 17
202 203 204 205 206 206 205 204 204 204 205 205 205 205 204 200 197 194 192 192 192 192 192 192 191 192 195 197 199 198 198 198 199 202 211 216 216 215 218 221 223 222 220 213 205 201 202 200 199 206 231 239 231 224 240 269 297 320 331 336 340 345 349 346 340 334 327 322 325 333 338 338 335 335 338 341 345 349 352 352 354 0 5 6 9
203 204 205 205 207 207 207 207 206 205 206 206 206 206 205 203 202 201 200 199 198 197 197 197 198 199 199 198 198 198 199 201 204 212 219 219 217 218 218 217 218 218 215 212 205 198 200 201 195 195 212 222 221 218 228 266 315 334 338 344 349 352 354 354 350 346 343 340 342 345 343 337 335 338 337 336 341 348 353 356 358 360 3 5 7
202 203 204 206 209 208 209 210 210 209 208 208 208 210 210 209 208 208 208 207 205 205 205 205 206 207 206 204 202 200 203 208 216 223 226 223 221 221 218 215 216 214 213 214 207 198 199 200 195 194 206 216 220 220 218 222 328 352 349 355 1 2 2 1 359 357 358 358 356 349 339 331 333 337 333 329 338 347 354 359 2 1 1 5 7
198 202 205 208 211 211 211 212 212 212 211 210 209 211 213 214 214 213 213 212 212 212 213 214 214 214 212 211 211 210 212 220 226 226 222 220 218 216 214 214 214 210 208 209 206 202 201 200 196 199 209 220 226 225 212 177 114 65 20 12 13 11 8 5 4 2 2 4 0 352 341 334 332 331 328 327 334 344 352 360 3 3 2 0 359
198 202 207 211 214 214 214 214 213 213 214 213 211 210 212 215 218 219 219 218 218 218 218 219 220 219 217 217 216 215 218 227 232 224 216 213 211 209 208 207 207 207 208 206 204 206 206 204 202 204 212 221 226 221 201 140 99 93 71 43 30 20 12 7 6 6 7 7 2 355 350 342 333 329 327 325 330 339 348 356 1 4 4 358 352
205 207 211 215 216 217 217 216 215 214 214 214 213 212 212 214 217 221 223 224 224 224 223 223 223 222 221 221 219 218 222 231 229 217 210 208 207 205 201 199 202 207 209 206 206 208 207 208 209 207 211 220 220 207 187 148 96 86 85 65 45 29 18 10 6 8 12 8 0 358 356 347 339 335 328 322 327 335 342 349 355 358 359 357 353
217 217 217 218 218 218 218 218 218 217 216 215 215 214 214 214 215 218 221 224 227 228 227 227 226 225 225 224 223 224 228 230 222 211 207 206 205 201 197 197 203 209 210 209 210 209 206 209 212 210 210 214 211 203 189 163 138 124 76 61 45 33 24 14 7 10 14 12 6 4 0 350 345 343 332 321 326 332 335 342 347 349 352 352 349
228 228 228 226 223 223 223 222 222 222 221 220 218 217 217 218 217 216 214 214 217 222 225 227 227 228 227 227 225 225 226 222 215 210 207 205 204 201 196 195 202 210 212 211 213 213 209 209 211 211 210 208 201 197 195 182 179 188 139 61 41 30 22 12 8 11 15 17 16 13 5 355 353 350 336 322 322 326 331 338 342 343 345 346 341
234 235 237 236 233 232 231 229 228 227 225 224 224 223 222 222 220 219 217 214 213 215 218 220 222 225 226 225 223 221 220 216 212 210 207 204 202 198 194 193 200 209 212 210 212 215 215 213 212 211 209 205 200 196 194 196 204 207 190 125 43 25 12 1 3 8 13 19 21 17 8 2 1 357 341 324 319 321 328 336 339 338 339 341 338
239 238 239 240 241 240 239 237 235 233 232 231 230 229 227 224 222 223 223 221 220 220 219 217 217 219 223 224 221 219 217 213 210 209 207 204 201 200 200 202 206 211 213 211 211 212 214 214 213 210 206 204 204 201 198 201 216 225 220 188 68 3 346 339 348 357 6 16 21 18 12 8 7 3 350 331 319 317 321 329 335 337 336 337 337
246 243 241 241 242 242 241 241 240 239 238 237 235 232 230 228 226 226 226 225 225 225 223 220 216 214 217 220 218 214 212 209 206 206 205 203 203 208 212 215 216 216 217 215 213 213 213 212 211 209 207 205 206 207 206 208 220 231 236 228 243 324 316 312 321 335 350 6 15 17 13 11 11 9 357 335 319 316 321 326 333 337 337 337 337
259 254 249 247 246 244 243 242 241 240 239 238 236 234 232 230 229 229 229 228 228 227 225 223 218 214 215 217 214 208 203 199 199 202 204 203 206 213 218 219 219 221 222 220 217 215 215 213 211 210 208 206 207 210 211 214 222 231 237 239 250 296 299 293 297 313 336 355 6 11 11 11 12 11 357 334 317 316 321 326 333 338 338 337 337
272 266 261 257 254 252 250 248 246 243 241 239 237 236 234 233 232 231 231 231 230 229 228 225 222 220 219 218 213 205 200 199 201 204 205 207 211 216 219 219 219 220 221 219 217 216 215 214 212 211 210 208 208 211 214 219 226 232 237 239 246 276 284 283 291 309 329 347 358 3 5 6 9 8 359 338 321 317 320 325 333 337 335 333 334
278 273 268 263 260 257 255 252 249 246 243 242 240 238 236 235 234 233 233 233 232 232 231 229 228 226 224 221 217 209 205 206 208 209 210 213 215 218 220 219 219 219 219 218 217 216 216 215 213 212 211 209 208 211 216 223 230 235 240 242 246 264 276 282 292 308 324 339 349 355 358 0 3 5 0 346 333 329 328 328 332 335 333 330 331
284 279 274 270 265 261 257 253 251 249 248 246 245 242 240 240 238 237 236 235 234 235 234 234 234 233 230 228 225 220 216 216 216 215 217 219 220 222 222 220 219 219 219 219 218 216 215 216 215 213 213 212 211 213 217 224 233 240 244 247 250 260 271 280 290 303 317 329 338 344 350 355 358 360 357 349 343 341 340 337 335 335 333 330 329
291 287 284 278 271 265 260 259 258 256 253 250 248 247 246 246 244 241 239 238 238 238 238 238 239 238 235 234 232 227 224 224 222 222 223 223 225 227 226 223 221 221 221 220 220 218 216 216 216 215 214 214 215 217 219 224 233 240 245 248 253 260 269 277 287 300 308 316 324 331 337 345 352 355 355 351 348 347 344 341 338 336 334 331 328
297 295 292 285 277 272 270 268 266 262 258 256 255 254 253 251 249 247 244 243 242 241 241 242 242 240 238 237 234 230 227 226 226 226 226 227 228 230 229 226 223 222 221 220 220 219 218 217 217 217 216 217 219 221 223 227 233 239 245 249 254 260 267 274 284 294 297 300 308 316 322 332 344 350 351 351 350 348 345 343 340 338 336 332 327
302 299 295 290 285 281 276 272 270 267 265 264 263 260 258 255 253 250 248 247 246 245 245 245 245 243 241 238 233 228 226 226 227 227 228 229 230 232 231 228 224 221 220 219 218 218 218 218 217 217 217 219 221 224 227 231 235 240 245 250 254 258 265 273 282 286 287 289 296 303 310 320 332 341 344 346 348 346 344 342 339 337 335 332 326
305 300 295 291 287 283 280 277 274 272 270 268 265 263 260 258 255 253 251 250 250 249 249 248 247 245 242 238 232 228 227 227 228 228 229 230 232 233 232 229 225 223 221 219 219 220 220 219 219 219 220 221 224 228 231 234 238 243 247 251 256 260 264 270 276 277 278 282 288 294 300 308 320 330 335 338 341 341 339 338 337 334 332 330 325
301 298 294 291 287 285 283 281 278 275 271 268 266 264 262 259 257 256 255 253 252 252 252 251 249 247 244 240 236 232 230 229 229 230 231 232 232 232 230 229 226 224 221 220 221 222 222 222 223 224 224 225 228 232 235 238 241 245 250 253 258 261 263 266 269 270 272 276 282 287 292 298 307 317 323 326 330 332 331 331 333 331 328 326 321
299 297 294 291 288 286 284 281 279 276 273 269 267 266 264 263 261 260 258 257 256 255 254 252 250 248 246 244 240 236 233 232 231 231 232 233 232 230 229 229 227 224 221 221 221 223 224 226 228 229 230 231 232 234 237 240 242 245 248 251 255 259 260 262 264 266 269 273 276 280 284 289 296 303 309 313 318 322 323 324 326 326 324 321 316
297 295 293 290 287 284 283 281 279 276 274 272 271 269 268 267 266 264 262 260 259 257 255 254 252 250 248 246 244 241 238 236 234 233 233 234 233 231 230 229 227 224 222 222 223 223 225 228 232 235 237 237 237 236 237 238 240 243 245 246 249 252 254 256 258 261 265 269 273 276 278 283 288 294 298 301 306 312 315 316 317 319 319 316 312
293 292 291 289 285 283 283 282 280 278 277 276 275 273 272 271 269 267 266 264 262 260 258 256 255 252 251 249 247 245 242 239 237 236 235 234 234 233 232 229 226 224 223 224 224 225 227 230 235 238 240 241 240 238 236 236 237 239 240 241 243 245 247 249 253 256 259 263 267 272 275 279 284 290 293 293 295 300 305 307 310 312 314 312 309
291 289 288 285 283 284 284 283 280 279 279 277 276 275 274 273 271 270 269 267 265 263 261 259 258 256 254 252 250 247 244 241 239 237 236 235 235 234 232 228 225 224 225 226 227 228 231 233 236 239 241 241 240 238 236 234 234 235 235 236 238 240 243 246 249 251 254 259 264 268 272 276 282 288 291 290 289 291 295 299 303 306 307 308 307
291 288 286 284 283 282 281 280 279 279 279 278 277 277 276 274 274 273 271 269 267 266 264 263 261 260 258 256 254 252 248 245 242 239 237 236 235 233 230 228 226 225 227 228 231 233 235 236 237 239 240 240 238 236 233 232 232 233 233 233 235 237 240 243 245 248 251 256 263 268 273 278 284 289 291 289 288 289 290 292 296 299 301 303 303